LZ3VG-2 Weather Reports


time (UTC)temp
C
wind
direction
speed
KPH
gust
KPH
rain 1hr
cm
rain 24hr
cm
rain mn
cm
humidity
%
barometer
mb
20260506182524 12 150 12.9 22.5 0.00 0.00 0.00 90 1016.0
20260506181521 12 151 14.5 20.9 0.00 0.00 0.00 90 1015.8
20260506180518 12 161 12.9 19.3 0.00 0.00 0.00 90 1015.8
20260506175535 12 154 14.5 24.1 0.00 0.00 0.00 89 1015.8
20260506174552 12 147 14.5 24.1 0.00 0.00 0.00 89 1015.6
20260506173529 12 146 14.5 22.5 0.00 0.00 0.00 88 1015.6
20260506172527 12 155 14.5 24.1 0.00 0.00 0.00 88 1015.5
20260506171523 12 145 14.5 24.1 0.00 0.00 0.00 88 1015.5
20260506170600 12 138 14.5 24.1 0.00 0.00 0.00 87 1015.4
20260506165517 12 147 12.9 20.9 0.00 0.00 0.00 86 1015.2
20260506164534 13 142 16.1 24.1 0.00 0.00 0.00 84 1015.2
20260506163531 13 140 17.7 24.1 0.00 0.00 0.00 83 1015.3
20260506162528 13 157 14.5 20.9 0.00 0.00 0.00 81 1015.3
20260506161525 13 133 16.1 22.5 0.00 0.00 0.00 81 1015.2
20260506160522 13 137 16.1 24.1 0.00 0.00 0.00 80 1015.3
20260506155518 13 136 16.1 25.7 0.00 0.00 0.00 80 1015.3
20260506154536 14 147 14.5 24.1 0.00 0.00 0.00 78 1015.1
20260506153553 14 165 16.1 25.7 0.00 0.00 0.00 75 1015.3
20260506152529 14 155 14.5 24.1 0.00 0.00 0.00 75 1015.4
20260506151526 14 144 14.5 25.7 0.00 0.00 0.00 75 1015.4
20260506150524 14 152 14.5 24.1 0.00 0.00 0.00 74 1015.4
20260506145520 15 150 14.5 25.7 0.00 0.00 0.00 73 1015.5
20260506144517 15 163 14.5 25.7 0.00 0.00 0.00 73 1015.5
20260506143535 15 158 12.9 24.1 0.00 0.00 0.00 73 1015.5
20260506142531 15 158 12.9 25.7 0.00 0.00 0.00 71 1015.5
20260506141528 15 143 17.7 27.4 0.00 0.00 0.00 70 1015.5
20260506140525 15 149 16.1 29.0 0.00 0.00 0.00 70 1015.5
20260506135522 15 164 14.5 25.7 0.00 0.00 0.00 68 1015.5
20260506134519 15 120 14.5 25.7 0.00 0.00 0.00 66 1015.3
20260506133516 16 138 16.1 32.2 0.00 0.00 0.00 63 1015.5
20260506132553 16 124 12.9 30.6 0.00 0.00 0.00 63 1015.4
20260506131530 16 127 16.1 46.7 0.00 0.00 0.00 60 1015.4
20260506130547 17 161 16.1 32.2 0.00 0.00 0.00 56 1015.5
20260506125524 16 121 14.5 24.1 0.00 0.00 0.00 55 1015.5
20260506124521 16 126 17.7 29.0 0.00 0.00 0.00 53 1015.6
20260506123518 16 119 14.5 25.7 0.00 0.00 0.00 49 1015.6
20260506122535 16 138 14.5 27.4 0.00 0.00 0.00 50 1015.8
20260506121552 16 133 16.1 32.2 0.00 0.00 0.00 52 1015.8
20260506120529 16 129 17.7 30.6 0.00 0.00 0.00 55 1015.9
20260506115526 16 122 14.5 33.8 0.00 0.00 0.00 57 1015.9
20260506114523 16 126 16.1 33.8 0.00 0.00 0.00 58 1016.0
20260506113540 16 123 16.1 30.6 0.00 0.00 0.00 58 1016.2
20260506112517 16 118 16.1 29.0 0.00 0.00 0.00 57 1016.2
20260506111533 16 124 17.7 40.2 0.00 0.00 0.00 56 1016.2
20260506110711 16 128 12.9 22.5 0.00 0.00 0.00 59 1016.2
20260506105528 16 125 14.5 25.7 0.00 0.00 0.00 58 1016.1
20260506104524 16 126 16.1 35.4 0.00 0.00 0.00 55 1016.2
20260506103541 16 142 14.5 29.0 0.00 0.00 0.00 52 1016.2
20260506102517 16 133 17.7 32.2 0.00 0.00 0.00 53 1016.3
20260506101535 16 123 14.5 29.0 0.00 0.00 0.00 55 1016.3
20260506100532 16 145 16.1 27.4 0.00 0.00 0.00 56 1016.3
20260506095529 16 150 14.5 25.7 0.00 0.00 0.00 54 1016.4
20260506094525 16 142 16.1 24.1 0.00 0.00 0.00 55 1016.4
20260506093522 16 147 17.7 29.0 0.00 0.00 0.00 55 1016.4
20260506092520 16 143 17.7 30.6 0.00 0.00 0.00 56 1016.3
20260506091516 15 147 20.9 33.8 0.00 0.00 0.00 56 1016.4
20260506090533 15 152 16.1 27.4 0.00 0.00 0.00 59 1016.4
20260506085551 15 152 14.5 29.0 0.00 0.00 0.00 61 1016.4
20260506084527 15 140 14.5 27.4 0.00 0.00 0.00 64 1016.4
20260506083524 14 136 14.5 32.2 0.00 0.00 0.00 68 1016.3
20260506082521 13 130 14.5 27.4 0.00 0.00 0.00 70 1016.2
20260506081519 13 146 12.9 25.7 0.00 0.00 0.00 74 1016.2
20260506080535 13 149 14.5 25.7 0.00 0.00 0.00 76 1016.1
20260506073526 12 131 14.5 27.4 0.00 0.00 0.00 81 1016.1
20260506072523 12 138 12.9 25.7 0.00 0.00 0.00 78 1016.2
20260506071521 13 150 12.9 32.2 0.00 0.00 0.00 73 1015.9
20260506070518 15 159 12.9 25.7 0.00 0.00 0.00 62 1015.8
20260506062051 14 188 16.1 19.3 0.00 0.00 0.00 66 1015.8
20260506061048 12 190 19.3 20.9 0.00 0.00 0.00 69 1015.9
20260506060205 13 184 16.1 19.3 0.00 0.00 0.00 69 1015.8
20260506051030 9 189 17.7 22.5 0.00 0.00 0.00 81 1015.8
20260506045024 8 189 17.7 20.9 0.00 0.00 0.00 82 1015.8
20260506044022 7 194 20.9 25.7 0.00 0.00 0.00 84 1015.7
20260506043019 7 192 20.9 24.1 0.00 0.00 0.00 85 1015.6
20260506042056 6 190 20.9 30.6 0.00 0.00 0.00 85 1015.6
20260506041033 6 198 20.9 27.4 0.00 0.00 0.00 86 1015.5
20260506040030 6 196 20.9 29.0 0.00 0.00 0.00 87 1015.4
20260506035027 6 194 22.5 27.4 0.00 0.00 0.00 89 1015.2
20260506034024 6 194 19.3 22.5 0.00 0.00 0.00 90 1015.3
20260506033021 5 190 19.3 25.7 0.00 0.00 0.00 91 1015.2
20260506032018 5 191 19.3 25.7 0.00 0.00 0.00 92 1015.1
20260506031035 5 191 20.9 24.1 0.00 0.00 0.00 93 1014.9
20260506030032 5 191 17.7 22.5 0.00 0.00 0.00 92 1014.9
20260506025029 5 189 19.3 24.1 0.00 0.00 0.00 93 1014.9
20260506024026 5 192 20.9 25.7 0.00 0.00 0.00 94 1015.0
20260506023023 5 192 19.3 25.7 0.00 0.00 0.00 94 1014.9
20260506022020 5 190 20.9 24.1 0.00 0.00 0.00 94 1014.9
20260506021017 5 188 20.9 25.7 0.00 0.00 0.00 93 1014.9
20260506020035 6 190 17.7 24.1 0.00 0.00 0.00 93 1015.0
20260506015032 6 188 22.5 30.6 0.00 0.00 0.00 93 1014.8
20260506014029 6 190 20.9 24.1 0.00 0.00 0.00 92 1014.8
20260506013026 6 191 20.9 24.1 0.00 0.00 0.00 93 1014.9
20260506012023 7 189 19.3 22.5 0.00 0.00 0.00 93 1015.1
20260506011019 7 188 19.3 25.7 0.00 0.00 0.00 93 1015.1
20260506010017 7 182 19.3 22.5 0.00 0.00 0.00 94 1015.2
20260506005034 7 182 19.3 22.5 0.00 0.00 0.00 94 1015.0
20260506004111 7 182 16.1 17.7 0.00 0.00 0.00 94 1015.1
20260506003028 7 188 17.7 19.3 0.00 0.00 0.00 94 1015.1
20260506002025 7 190 19.3 22.5 0.00 0.00 0.00 93 1015.2
20260506001022 7 183 17.7 17.7 0.00 0.00 0.00 91 1015.0
20260506000019 8 187 17.7 20.9 0.00 0.00 0.00 91 1015.0
20260505235016 7 185 16.1 19.3 0.00 0.00 0.00 92 1015.1
20260505234033 7 182 16.1 20.9 0.00 0.00 0.00 91 1015.4
20260505233030 8 191 19.3 22.5 0.00 0.00 0.00 92 1015.3
20260505232028 8 193 19.3 22.5 0.00 0.00 0.00 91 1015.5
20260505231024 8 192 19.3 24.1 0.00 0.00 0.00 90 1015.6
20260505230022 8 187 19.3 20.9 0.00 0.00 0.00 87 1015.6
20260505225059 8 192 17.7 20.9 0.00 0.00 0.00 88 1015.6
20260505224016 10 193 19.3 20.9 0.00 0.00 0.00 91 1015.8
20260505223033 10 182 16.1 17.7 0.00 0.00 0.00 93 1015.8
20260505222050 11 173 16.1 17.7 0.00 0.00 0.00 92 1015.8
20260505221027 11 173 16.1 19.3 0.00 0.00 0.00 92 1015.9
20260505220044 11 171 14.5 17.7 0.00 0.00 0.00 91 1016.0
20260505215021 11 173 12.9 16.1 0.00 0.00 0.00 90 1015.9
20260505214018 11 172 14.5 17.7 0.00 0.00 0.00 88 1016.0
20260505213035 11 172 12.9 16.1 0.00 0.00 0.00 85 1015.9
20260505212032 11 177 12.9 16.1 0.00 0.00 0.00 85 1015.9
20260505211049 11 178 11.3 14.5 0.00 0.00 0.00 86 1015.9
20260505210026 11 182 9.7 14.5 0.00 0.00 0.00 84 1015.8
20260505205022 11 179 9.7 14.5 0.00 0.00 0.00 79 1016.0
20260505204019 12 183 9.7 14.5 0.00 0.00 0.00 77 1015.9
20260505203016 11 174 14.5 17.7 0.00 0.00 0.00 68 1015.9
20260505202033 11 181 16.1 17.7 0.00 0.00 0.00 69 1015.8
20260505201030 11 180 17.7 19.3 0.00 0.00 0.00 73 1015.9
20260505200028 11 177 16.1 17.7 0.00 0.00 0.00 84 1015.8
20260505195025 12 163 17.7 22.5 0.00 0.00 0.00 84 1015.9
20260505194021 12 160 14.5 20.9 0.00 0.00 0.00 83 1015.8
20260505193018 12 163 14.5 20.9 0.00 0.00 0.00 84 1015.7
20260505192035 12 161 14.5 22.5 0.00 0.00 0.00 84 1015.6
20260505191032 12 158 14.5 24.1 0.00 0.00 0.00 82 1015.3
20260505190109 12 142 14.5 22.5 0.00 0.00 0.00 79 1015.3
20260505185026 12 153 14.5 20.9 0.00 0.00 0.00 77 1015.4
20260505184103 12 157 14.5 20.9 0.00 0.00 0.00 77 1015.3